Weather in Shlanga

Russia / Republic of Tatarstan     54°48′48″N   47°23′35″E
temp.,
°C
wind,
m/s
gust,
m/s
humid.,
%
clouds,
%
prec.,
mm/h
press.,
hPa
HPBL,
m
25 october, mon
mon2500:00+3wsw4587100 0.1 1013509
03:00+2w3598100 0.7 1013330
06:00+2nw4899100 0.8 1014543
09:000nnw8139099 1.3 1018689
12:00+1nnw81066100 0.1 10211064
15:00+2nnw69568 0.1 10231203
18:000nw49665 0.0 1026347
21:00−1wnw367483 0.0 1027176
26 october, tue
tue2600:00−1wsw377528 0.0 1027222
03:00−2wsw5117928 0.0 1027318
06:00−2sw6147396 0.0 1026436
09:000sw71461100 0.0 1025548
12:00+3wsw8135595 0.0 1023765
15:00+4wsw7135881 0.0 1022803
18:00+2wsw61365100 0.0 1022508
21:00+2wsw61367100 0.0 1022456
27 october, wed
wed2700:00+1wsw61369100 0.0 1022395
03:00+1wsw61370100 0.0 1022396
06:00+1wsw61470100 0.0 1022391
09:00+2wsw71563100 0.0 1021468
12:00+6wsw71451100 0.0 1020669
15:00+7wsw71549100 0.0 1019720
18:00+5wsw81655100 0.0 1018607
21:00+4wsw8175619 0.0 1017653
28 october, thu
thu2800:00+5wsw91653100 0.0 1015757
03:00+3wsw81596100 0.3 1015735
06:00+5w81479100 0.0 1015748
09:00+6w7127689 0.0 1016867
12:00+6w61074100 0.0 10171134
15:00+6w6107098 0.0 1017968
18:00+6w41173100 0.0 1017554
21:00+6wsw5882100 0.0 1016862
29 october, fri
fri2900:00+5wsw3693100 0.8 1015929
03:00+5w3695100 1.3 1015352
06:00+5n4791100 0.3 1017851
09:00+2nne697850 0.5 1021547
12:00+1nne67450 0.0 1024733
15:00+1nne56480 0.0 1026846
18:00−1nne36615 0.0 1030266
21:00−2ne36686 0.0 1032298